Location: Follega
(52.8850°N, 5.7362°E)
Time: 22:50:29
(UTC+00:00)

Cosmos 292 Rocket - Pass Details

Date: 01 June 2020
Orbit: 673 x 695 km, 74.0° (Epoch: 05 July)

Event Time Altitude Azimuth Distance (km) Brightness Sun altitude
Exits shadow 21:48:20 13° 179° (S) 1,917 5.5 -11.4°
Maximum altitude 21:52:22 48° 108° (ESE) 906 4.1 -11.7°
Drops below altitude 10° 21:57:03 10° 35° (NE) 2,162 6.8 -11.9°
Sets 21:59:26 0° 30° (NNE) 3,085 7.7 -12.1°
